DECAYED
Showing default

ASAP-S, 41461 (Decayed)

Orbit data source: Space-Track

ASAP-S, 41461 was a payload satellite owned by CNES (FR) in LEO that was launched on Mon, 25 Apr 2016 UTC launched from the French Guiana (FRGUI). Payload-class satellites include a variety of spacecraft equipped with specific instruments for various scientific and technological missions. These include communications satellites like Starlink; space stations such as the ISS; scientific satellites like the Hubble; Earth observation satellites from companies like Planet Labs, Umbra, and HawkEye 360; GPS; miniature CubeSats for education and research; and military/defense satellites.

Not visible in the next 10 days
Identifier
41461, 2016-025F
Orbit
Decayed
Country
Flag of FRFR
Related business
Manufacturer
Airbus Barajas
Mission
Decayed spacecraft
Bus & Motor
DISPENSER, Unknown motor
Mass
400 kg wet, 400 kg dry
Launch date (UTC)
2016-04-25 (9 years ago)
Launch vehicle
Unknown
Launch site
French Guiana (FRGUI)
Object type
Payload
Rocket body
Debris
Shape & HBR
Irr, 0.6 m
Radar Cross Section
1.920 m², Large (>1 m²)

Expand to show TLE details & history
Last TLE update: 1 year ago

TLE from 1 year ago
0 ASAP-S
1 41461U 16025F   24222.51379594  .21966838  34272-5  59042-3 0  9994
2 41461  98.1082 124.4953 0004177 195.9430 250.6342 16.45604282457370
Epoch: 2024-08-09T12:19Z
TLE epoch observation values (Epoch: 2024-08-09T12:19:51.969Z)
Latitude
81.23409°
Longitude
-85.6806°
Altitude
165.28 km
Speed
7.813 km/s
True Right ascension
03h 51m 05s
True Declination
81° 10' 39"
Sunlit
Object was in daylight at epoch
Visualization orbit readout
Latitude
Unknown
Longitude
Unknown
Altitude
Unknown
Speed
Unknown
Apparent Right ascension
Unknown
Apparent Declination
Unknown
Sunlit
N/A
Visualization observer readout
Local Sidereal Time
00:11:37
Azimuth
Unknown
Elevation
Unknown
Doppler factor
Unknown
Orbital elements
Apogee altitude
150.496 km
Perigee altitude
145.045 km
Semi-major axis
6,525.907 km
Eccentricity
0.00042
Inclination
98.1082°
RAAN
124.4953°
Arg. of periapsis
195.943°
True anomaly
250.58905°
Mean anomaly
250.6342°
Eccentric anomaly
250.61162°
Mean motion
4.11701 °/min
Orbital period
87.44 mins
BSTAR
0.00059042
Loading maneuver chart data...
Computing Atmospheric mass density...
Loading historical data...
Loading historical data...
Loading historical data...
Loading historical data...
Loading historical data...
Loading historical data...
Loading historical data...

Documentation

Showing up to 5 results
|